| time (UTC) | temp F | wind direction | speed MPH | gust MPH | rain 1hr in | rain 24hr in | rain mn in | humidity % | barometer mb |
| 20260506174119 | 66 | 322 | 2.0 | 13.0 | 0.00 | 0.17 | 0.17 | 81 | 1009.5 |
| 20260506173627 | 66 | 280 | 4.0 | 13.0 | 0.00 | 0.17 | 0.17 | 82 | 1009.4 |
| 20260506173116 | 66 | 165 | 3.0 | 10.0 | 0.00 | 0.17 | 0.17 | 83 | 1009.3 |
| 20260506172624 | 65 | 240 | 3.0 | 10.0 | 0.00 | 0.17 | 0.17 | 83 | 1009.5 |
| 20260506172131 | 65 | 212 | 4.0 | 11.0 | 0.00 | 0.17 | 0.17 | 83 | 1009.5 |
| 20260506171620 | 65 | 249 | 4.0 | 11.0 | 0.00 | 0.17 | 0.17 | 84 | 1009.6 |
| 20260506171127 | 65 | 197 | 4.0 | 13.0 | 0.00 | 0.17 | 0.17 | 84 | 1009.6 |
| 20260506170617 | 65 | 252 | 3.0 | 13.0 | 0.00 | 0.17 | 0.17 | 84 | 1009.6 |
| 20260506170146 | 64 | 324 | 3.0 | 11.0 | 0.00 | 0.17 | 0.17 | 86 | 1009.6 |
| 20260506165614 | 64 | 264 | 4.0 | 11.0 | 0.00 | 0.17 | 0.17 | 85 | 1009.7 |
| 20260506165143 | 63 | 218 | 2.0 | 12.0 | 0.00 | 0.17 | 0.17 | 86 | 1009.7 |
| 20260506164632 | 63 | 280 | 5.0 | 16.0 | 0.00 | 0.17 | 0.17 | 86 | 1009.7 |
| 20260506164119 | 63 | 239 | 4.0 | 16.0 | 0.00 | 0.17 | 0.17 | 87 | 1009.9 |
| 20260506163628 | 63 | 333 | 2.0 | 9.0 | 0.00 | 0.17 | 0.17 | 87 | 1009.7 |
| 20260506163137 | 63 | 238 | 3.0 | 11.0 | 0.00 | 0.17 | 0.17 | 88 | 1009.6 |
| 20260506162625 | 63 | 165 | 4.0 | 12.0 | 0.00 | 0.17 | 0.17 | 88 | 1009.7 |
| 20260506162149 | 62 | 222 | 4.0 | 13.0 | 0.00 | 0.17 | 0.17 | 88 | 1009.6 |
| 20260506161617 | 62 | 288 | 3.0 | 17.0 | 0.01 | 0.17 | 0.17 | 89 | 1009.8 |
| 20260506161125 | 62 | 288 | 3.0 | 20.0 | 0.01 | 0.17 | 0.17 | 89 | 1009.9 |
| 20260506160614 | 62 | 165 | 3.0 | 20.0 | 0.01 | 0.17 | 0.17 | 89 | 1009.9 |
| 20260506160124 | 62 | 50 | 5.0 | 14.0 | 0.01 | 0.17 | 0.17 | 90 | 1009.9 |
| 20260506155614 | 62 | 147 | 5.0 | 14.0 | 0.01 | 0.17 | 0.17 | 89 | 1009.9 |
| 20260506155122 | 62 | 249 | 3.0 | 11.0 | 0.01 | 0.17 | 0.17 | 90 | 1009.8 |
| 20260506154651 | 61 | 213 | 4.0 | 11.0 | 0.02 | 0.17 | 0.17 | 90 | 1009.9 |
| 20260506154119 | 61 | 189 | 4.0 | 11.0 | 0.02 | 0.17 | 0.17 | 90 | 1010.1 |
| 20260506153647 | 61 | 309 | 2.0 | 11.0 | 0.03 | 0.17 | 0.17 | 90 | 1009.9 |
| 20260506153115 | 61 | 307 | 5.0 | 15.0 | 0.04 | 0.17 | 0.17 | 90 | 1009.9 |
| 20260506152623 | 61 | 226 | 4.0 | 15.0 | 0.04 | 0.17 | 0.17 | 90 | 1009.9 |
| 20260506152131 | 61 | 251 | 4.0 | 13.0 | 0.05 | 0.17 | 0.17 | 90 | 1010.0 |
| 20260506151620 | 61 | 236 | 4.0 | 11.0 | 0.05 | 0.16 | 0.16 | 90 | 1010.2 |
| 20260506151128 | 61 | 232 | 3.0 | 11.0 | 0.06 | 0.16 | 0.16 | 90 | 1010.3 |
| 20260506150617 | 61 | 259 | 2.0 | 12.0 | 0.06 | 0.16 | 0.16 | 90 | 1010.4 |
| 20260506150126 | 61 | 196 | 4.0 | 12.0 | 0.07 | 0.16 | 0.16 | 90 | 1010.4 |
| 20260506145614 | 61 | 98 | 3.0 | 9.0 | 0.07 | 0.16 | 0.16 | 90 | 1010.6 |
| 20260506145117 | 61 | 154 | 4.0 | 11.0 | 0.08 | 0.16 | 0.16 | 90 | 1010.7 |
| 20260506144627 | 61 | 255 | 4.0 | 14.0 | 0.08 | 0.15 | 0.15 | 90 | 1010.7 |
| 20260506144115 | 61 | 120 | 3.0 | 18.0 | 0.08 | 0.15 | 0.15 | 90 | 1010.7 |
| 20260506143625 | 61 | 193 | 7.0 | 18.0 | 0.08 | 0.14 | 0.14 | 90 | 1010.7 |
| 20260506143114 | 61 | 251 | 5.0 | 14.0 | 0.07 | 0.13 | 0.13 | 90 | 1010.5 |
| 20260506142623 | 61 | 243 | 3.0 | 13.0 | 0.07 | 0.13 | 0.13 | 90 | 1010.4 |
| 20260506142132 | 61 | 239 | 6.0 | 13.0 | 0.07 | 0.12 | 0.12 | 90 | 1010.6 |
| 20260506141620 | 61 | 220 | 3.0 | 15.0 | 0.07 | 0.11 | 0.11 | 90 | 1010.4 |
| 20260506141129 | 61 | 221 | 3.0 | 15.0 | 0.07 | 0.10 | 0.10 | 89 | 1010.4 |
| 20260506140618 | 61 | 174 | 2.0 | 13.0 | 0.08 | 0.10 | 0.10 | 89 | 1010.4 |
| 20260506140127 | 61 | 228 | 3.0 | 11.0 | 0.07 | 0.09 | 0.09 | 89 | 1010.5 |
| 20260506135636 | 61 | 226 | 6.0 | 11.0 | 0.07 | 0.09 | 0.09 | 89 | 1010.6 |
| 20260506135145 | 61 | 262 | 5.0 | 12.0 | 0.07 | 0.08 | 0.08 | 89 | 1010.6 |
| 20260506134632 | 61 | 220 | 6.0 | 12.0 | 0.06 | 0.07 | 0.07 | 88 | 1010.7 |
| 20260506134121 | 61 | 84 | 4.0 | 11.0 | 0.07 | 0.07 | 0.07 | 88 | 1011.0 |
| 20260506133650 | 62 | 248 | 4.0 | 8.0 | 0.06 | 0.06 | 0.06 | 88 | 1011.1 |
| 20260506133118 | 62 | 301 | 2.0 | 10.0 | 0.06 | 0.06 | 0.06 | 88 | 1011.3 |
| 20260506132621 | 62 | 316 | 3.0 | 10.0 | 0.06 | 0.06 | 0.06 | 87 | 1011.1 |
| 20260506132131 | 62 | 47 | 2.0 | 9.0 | 0.05 | 0.05 | 0.05 | 87 | 1010.8 |
| 20260506131621 | 62 | 216 | 2.0 | 9.0 | 0.04 | 0.04 | 0.04 | 86 | 1010.6 |
| 20260506131129 | 62 | 222 | 1.0 | 4.0 | 0.03 | 0.03 | 0.03 | 85 | 1010.7 |
| 20260506130618 | 62 | 236 | 1.0 | 9.0 | 0.02 | 0.02 | 0.02 | 85 | 1010.6 |
| 20260506130127 | 63 | 211 | 2.0 | 9.0 | 0.02 | 0.02 | 0.02 | 84 | 1010.7 |
| 20260506125616 | 63 | 205 | 2.0 | 9.0 | 0.02 | 0.02 | 0.02 | 83 | 1010.5 |
| 20260506125144 | 63 | 154 | 3.0 | 8.0 | 0.01 | 0.01 | 0.01 | 83 | 1010.4 |
| 20260506124633 | 63 | 272 | 3.0 | 9.0 | 0.01 | 0.01 | 0.01 | 82 | 1010.5 |
| 20260506124122 | 63 | 244 | 2.0 | 9.0 | 0.00 | 0.00 | 0.00 | 81 | 1010.4 |
| 20260506123630 | 63 | 213 | 1.0 | 7.0 | 0.00 | 0.00 | 0.00 | 80 | 1010.5 |
| 20260506123139 | 64 | 356 | 2.0 | 8.0 | 0.00 | 0.00 | 0.00 | 80 | 1010.5 |
| 20260506122627 | 64 | 93 | 1.0 | 8.0 | 0.00 | 0.00 | 0.00 | 79 | 1010.6 |
| 20260506122116 | 64 | 218 | 1.0 | 8.0 | 0.00 | 0.00 | 0.00 | 79 | 1010.8 |
| 20260506121625 | 64 | 188 | 0.0 | 7.0 | 0.00 | 0.00 | 0.00 | 78 | 1010.9 |
| 20260506121133 | 64 | 249 | 2.0 | 6.0 | 0.00 | 0.00 | 0.00 | 77 | 1010.9 |
| 20260506120621 | 64 | 315 | 2.0 | 10.0 | 0.00 | 0.00 | 0.00 | 76 | 1010.9 |
| 20260506120127 | 64 | 284 | 2.0 | 10.0 | 0.00 | 0.00 | 0.00 | 75 | 1011.0 |
| 20260506115614 | 64 | 45 | 1.0 | 6.0 | 0.00 | 0.00 | 0.00 | 75 | 1010.8 |
| 20260506115120 | 65 | 228 | 2.0 | 6.0 | 0.00 | 0.00 | 0.00 | 75 | 1010.8 |
| 20260506114629 | 65 | 232 | 1.0 | 12.0 | 0.00 | 0.00 | 0.00 | 74 | 1010.8 |
| 20260506114137 | 65 | 231 | 3.0 | 12.0 | 0.00 | 0.00 | 0.00 | 73 | 1010.7 |
| 20260506113624 | 65 | 276 | 3.0 | 11.0 | 0.00 | 0.00 | 0.00 | 73 | 1010.5 |
| 20260506113133 | 65 | 212 | 2.0 | 11.0 | 0.00 | 0.00 | 0.00 | 73 | 1010.5 |
| 20260506112621 | 65 | 227 | 2.0 | 9.0 | 0.00 | 0.00 | 0.00 | 73 | 1010.5 |
| 20260506112129 | 65 | 211 | 4.0 | 12.0 | 0.00 | 0.00 | 0.00 | 72 | 1010.4 |
| 20260506111619 | 65 | 269 | 6.0 | 12.0 | 0.00 | 0.00 | 0.00 | 72 | 1010.3 |
| 20260506111127 | 65 | 180 | 4.0 | 12.0 | 0.00 | 0.00 | 0.00 | 72 | 1010.3 |
| 20260506110616 | 65 | 72 | 1.0 | 17.0 | 0.00 | 0.00 | 0.00 | 72 | 1010.2 |
| 20260506110144 | 65 | 313 | 2.0 | 17.0 | 0.00 | 0.00 | 0.00 | 72 | 1010.3 |
| 20260506105632 | 65 | 304 | 5.0 | 13.0 | 0.00 | 0.00 | 0.00 | 72 | 1010.3 |
| 20260506105120 | 65 | 274 | 4.0 | 13.0 | 0.00 | 0.00 | 0.00 | 72 | 1010.2 |
| 20260506104629 | 65 | 234 | 3.0 | 16.0 | 0.00 | 0.00 | 0.00 | 72 | 1010.1 |
| 20260506104139 | 65 | 239 | 5.0 | 16.0 | 0.00 | 0.00 | 0.00 | 72 | 1010.1 |
| 20260506103627 | 65 | 228 | 2.0 | 11.0 | 0.00 | 0.00 | 0.00 | 72 | 1010.0 |
| 20260506103115 | 65 | 307 | 2.0 | 9.0 | 0.00 | 0.00 | 0.00 | 72 | 1009.9 |
| 20260506102620 | 65 | 222 | 3.0 | 12.0 | 0.00 | 0.00 | 0.00 | 72 | 1010.0 |
| 20260506102129 | 65 | 165 | 6.0 | 12.0 | 0.00 | 0.00 | 0.00 | 72 | 1010.0 |
| 20260506101617 | 65 | 241 | 3.0 | 12.0 | 0.00 | 0.00 | 0.00 | 72 | 1010.0 |
| 20260506101126 | 65 | 182 | 2.0 | 12.0 | 0.00 | 0.00 | 0.00 | 72 | 1009.9 |
| 20260506100616 | 65 | 322 | 3.0 | 12.0 | 0.00 | 0.00 | 0.00 | 72 | 1009.9 |
| 20260506100126 | 65 | 316 | 5.0 | 12.0 | 0.00 | 0.00 | 0.00 | 72 | 1009.9 |
| 20260506095615 | 65 | 239 | 2.0 | 9.0 | 0.00 | 0.00 | 0.00 | 72 | 1010.0 |
| 20260506095123 | 65 | 262 | 5.0 | 11.0 | 0.00 | 0.00 | 0.00 | 71 | 1010.1 |
| 20260506094632 | 65 | 145 | 4.0 | 11.0 | 0.00 | 0.00 | 0.00 | 71 | 1010.0 |
| 20260506094120 | 65 | 13 | 2.0 | 18.0 | 0.00 | 0.00 | 0.00 | 71 | 1010.1 |
| 20260506093626 | 65 | 255 | 5.0 | 18.0 | 0.00 | 0.00 | 0.00 | 71 | 1010.0 |
| 20260506093116 | 65 | 257 | 4.0 | 11.0 | 0.00 | 0.00 | 0.00 | 71 | 1010.0 |
| 20260506092625 | 65 | 187 | 4.0 | 11.0 | 0.00 | 0.00 | 0.00 | 70 | 1010.1 |
| 20260506092133 | 65 | 216 | 3.0 | 16.0 | 0.00 | 0.00 | 0.00 | 70 | 1010.0 |
| 20260506091643 | 65 | 241 | 6.0 | 16.0 | 0.00 | 0.00 | 0.00 | 70 | 1010.1 |
| 20260506091129 | 65 | 200 | 5.0 | 11.0 | 0.00 | 0.00 | 0.00 | 69 | 1010.0 |
| 20260506090619 | 66 | 199 | 4.0 | 15.0 | 0.00 | 0.00 | 0.00 | 69 | 1009.9 |
| 20260506090128 | 66 | 165 | 7.0 | 15.0 | 0.00 | 0.00 | 0.00 | 68 | 1010.1 |
| 20260506085616 | 66 | 165 | 4.0 | 17.0 | 0.00 | 0.00 | 0.00 | 68 | 1010.0 |
| 20260506085125 | 66 | 165 | 4.0 | 17.0 | 0.00 | 0.00 | 0.00 | 67 | 1010.2 |
| 20260506084629 | 66 | 165 | 2.0 | 11.0 | 0.00 | 0.00 | 0.00 | 67 | 1010.2 |
| 20260506084117 | 67 | 165 | 2.0 | 11.0 | 0.00 | 0.00 | 0.00 | 66 | 1010.3 |
| 20260506083627 | 67 | 165 | 3.0 | 14.0 | 0.00 | 0.00 | 0.00 | 66 | 1010.3 |
| 20260506083115 | 67 | 165 | 4.0 | 14.0 | 0.00 | 0.00 | 0.00 | 66 | 1010.3 |
| 20260506082625 | 67 | 165 | 4.0 | 11.0 | 0.00 | 0.00 | 0.00 | 66 | 1010.3 |
| 20260506082133 | 67 | 165 | 2.0 | 9.0 | 0.00 | 0.00 | 0.00 | 65 | 1010.4 |
| 20260506081621 | 67 | 165 | 1.0 | 11.0 | 0.00 | 0.00 | 0.00 | 65 | 1010.2 |
| 20260506081131 | 67 | 165 | 5.0 | 13.0 | 0.00 | 0.00 | 0.00 | 65 | 1010.2 |
| 20260506080621 | 67 | 165 | 4.0 | 13.0 | 0.00 | 0.00 | 0.00 | 65 | 1010.1 |
| 20260506080130 | 67 | 165 | 5.0 | 14.0 | 0.00 | 0.00 | 0.00 | 64 | 1010.0 |
| 20260506073123 | 68 | 165 | 2.0 | 14.0 | 0.00 | 0.00 | 0.00 | 63 | 1010.2 |
| 20260506072629 | 68 | 165 | 2.0 | 14.0 | 0.00 | 0.00 | 0.00 | 62 | 1010.2 |
| 20260506072118 | 68 | 165 | 3.0 | 14.0 | 0.00 | 0.00 | 0.00 | 62 | 1010.3 |
| 20260506071128 | 68 | 165 | 3.0 | 12.0 | 0.00 | 0.00 | 0.00 | 61 | 1010.4 |
| 20260506070616 | 68 | 165 | 4.0 | 12.0 | 0.00 | 0.00 | 0.00 | 61 | 1010.4 |
| 20260506070124 | 68 | 165 | 4.0 | 12.0 | 0.00 | 0.00 | 0.00 | 61 | 1010.4 |
| 20260506062127 | 70 | 165 | 4.0 | 14.0 | 0.00 | 0.00 | 0.00 | 57 | 1010.7 |
| 20260506061616 | 70 | 288 | 2.0 | 14.0 | 0.00 | 0.00 | 0.00 | 57 | 1010.7 |
| 20260506061125 | 70 | 165 | 4.0 | 14.0 | 0.00 | 0.00 | 0.00 | 56 | 1010.7 |
| 20260506060635 | 70 | 160 | 1.0 | 12.0 | 0.00 | 0.00 | 0.00 | 56 | 1010.7 |
| 20260506060123 | 70 | 204 | 5.0 | 12.0 | 0.00 | 0.00 | 0.00 | 56 | 1010.7 |
| 20260506051126 | 71 | 229 | 4.0 | 14.0 | 0.00 | 0.00 | 0.00 | 53 | 1010.9 |
| 20260506050616 | 71 | 253 | 4.0 | 13.0 | 0.00 | 0.00 | 0.00 | 53 | 1011.0 |
| 20260506050125 | 71 | 242 | 3.0 | 12.0 | 0.00 | 0.00 | 0.00 | 53 | 1011.1 |
| 20260506045123 | 72 | 222 | 4.0 | 13.0 | 0.00 | 0.00 | 0.00 | 52 | 1011.1 |
| 20260506044633 | 72 | 272 | 4.0 | 13.0 | 0.00 | 0.00 | 0.00 | 52 | 1011.1 |
| 20260506044121 | 72 | 149 | 5.0 | 13.0 | 0.00 | 0.00 | 0.00 | 52 | 1011.1 |
| 20260506043629 | 72 | 245 | 3.0 | 15.0 | 0.00 | 0.00 | 0.00 | 52 | 1011.1 |
| 20260506043138 | 72 | 79 | 8.0 | 15.0 | 0.00 | 0.00 | 0.00 | 52 | 1011.2 |
| 20260506042645 | 72 | 201 | 5.0 | 17.0 | 0.00 | 0.00 | 0.00 | 52 | 1011.1 |
| 20260506042152 | 72 | 226 | 5.0 | 17.0 | 0.00 | 0.00 | 0.00 | 51 | 1011.1 |
| 20260506041620 | 72 | 76 | 5.0 | 22.0 | 0.00 | 0.00 | 0.00 | 51 | 1011.1 |
| 20260506041125 | 72 | 236 | 7.0 | 22.0 | 0.00 | 0.00 | 0.00 | 51 | 1011.0 |
| 20260506040615 | 72 | 180 | 7.0 | 13.0 | 0.00 | 0.00 | 0.00 | 51 | 1011.1 |
| 20260506040123 | 72 | 138 | 2.0 | 10.0 | 0.00 | 0.00 | 0.00 | 51 | 1011.2 |
| 20260506035626 | 72 | 204 | 3.0 | 10.0 | 0.00 | 0.00 | 0.00 | 50 | 1011.1 |
| 20260506035115 | 72 | 223 | 5.0 | 10.0 | 0.00 | 0.00 | 0.00 | 50 | 1011.1 |
| 20260506034624 | 72 | 251 | 4.0 | 20.0 | 0.00 | 0.00 | 0.00 | 50 | 1011.1 |
| 20260506034132 | 72 | 184 | 4.0 | 20.0 | 0.00 | 0.00 | 0.00 | 49 | 1011.0 |
| 20260506033620 | 72 | 253 | 4.0 | 16.0 | 0.00 | 0.00 | 0.00 | 49 | 1011.1 |
| 20260506033149 | 72 | 16 | 3.0 | 12.0 | 0.00 | 0.00 | 0.00 | 48 | 1011.0 |
| 20260506032617 | 72 | 174 | 5.0 | 14.0 | 0.00 | 0.00 | 0.00 | 47 | 1011.1 |
| 20260506032125 | 72 | 297 | 5.0 | 14.0 | 0.00 | 0.00 | 0.00 | 47 | 1011.1 |
| 20260506031614 | 72 | 223 | 2.0 | 15.0 | 0.00 | 0.00 | 0.00 | 46 | 1011.2 |
| 20260506031143 | 72 | 291 | 5.0 | 18.0 | 0.00 | 0.00 | 0.00 | 46 | 1011.1 |
| 20260506030632 | 72 | 191 | 8.0 | 18.0 | 0.00 | 0.00 | 0.00 | 45 | 1011.1 |
| 20260506030120 | 72 | 214 | 4.0 | 13.0 | 0.00 | 0.00 | 0.00 | 45 | 1011.0 |
| 20260506025628 | 72 | 248 | 2.0 | 13.0 | 0.00 | 0.00 | 0.00 | 45 | 1010.9 |
| 20260506025116 | 73 | 149 | 3.0 | 13.0 | 0.00 | 0.00 | 0.00 | 44 | 1011.0 |
| 20260506024625 | 73 | 43 | 2.0 | 14.0 | 0.00 | 0.00 | 0.00 | 44 | 1011.0 |
| 20260506024128 | 73 | 241 | 3.0 | 14.0 | 0.00 | 0.00 | 0.00 | 44 | 1011.1 |
| 20260506023638 | 73 | 207 | 5.0 | 13.0 | 0.00 | 0.00 | 0.00 | 44 | 1011.0 |
| 20260506023125 | 73 | 224 | 3.0 | 10.0 | 0.00 | 0.00 | 0.00 | 43 | 1011.0 |
| 20260506022614 | 73 | 260 | 2.0 | 10.0 | 0.00 | 0.00 | 0.00 | 43 | 1011.1 |
| 20260506022123 | 73 | 151 | 1.0 | 11.0 | 0.00 | 0.00 | 0.00 | 42 | 1011.2 |
| 20260506021632 | 73 | 241 | 3.0 | 11.0 | 0.00 | 0.00 | 0.00 | 42 | 1011.1 |
| 20260506021120 | 73 | 107 | 2.0 | 9.0 | 0.00 | 0.00 | 0.00 | 42 | 1011.1 |
| 20260506020628 | 74 | 257 | 3.0 | 14.0 | 0.00 | 0.00 | 0.00 | 41 | 1011.1 |
| 20260506020118 | 74 | 220 | 3.0 | 14.0 | 0.00 | 0.00 | 0.00 | 40 | 1011.1 |
| 20260506015648 | 73 | 220 | 4.0 | 9.0 | 0.00 | 0.00 | 0.00 | 40 | 1011.0 |
| 20260506015114 | 74 | 210 | 2.0 | 10.0 | 0.00 | 0.00 | 0.00 | 40 | 1011.0 |
| 20260506014623 | 74 | 251 | 2.0 | 13.0 | 0.00 | 0.00 | 0.00 | 39 | 1011.0 |
| 20260506014132 | 74 | 2 | 3.0 | 13.0 | 0.00 | 0.00 | 0.00 | 39 | 1011.0 |
| 20260506013619 | 74 | 213 | 3.0 | 12.0 | 0.00 | 0.00 | 0.00 | 38 | 1011.0 |
| 20260506013128 | 74 | 252 | 2.0 | 11.0 | 0.00 | 0.00 | 0.00 | 38 | 1010.9 |
| 20260506012617 | 74 | 293 | 3.0 | 11.0 | 0.00 | 0.00 | 0.00 | 38 | 1010.8 |
| 20260506012126 | 74 | 226 | 4.0 | 11.0 | 0.00 | 0.00 | 0.00 | 38 | 1010.7 |
| 20260506011615 | 74 | 130 | 3.0 | 9.0 | 0.00 | 0.00 | 0.00 | 38 | 1010.7 |
| 20260506011123 | 74 | 247 | 2.0 | 4.0 | 0.00 | 0.00 | 0.00 | 37 | 1010.7 |
| 20260506010629 | 74 | 165 | 1.0 | 6.0 | 0.00 | 0.00 | 0.00 | 37 | 1010.6 |
| 20260506010117 | 74 | 264 | 2.0 | 7.0 | 0.00 | 0.00 | 0.00 | 36 | 1010.6 |
| 20260506005626 | 75 | 232 | 2.0 | 9.0 | 0.00 | 0.00 | 0.00 | 36 | 1010.5 |
| 20260506005115 | 75 | 165 | 2.0 | 9.0 | 0.00 | 0.00 | 0.00 | 35 | 1010.4 |
| 20260506004624 | 75 | 265 | 3.0 | 9.0 | 0.00 | 0.00 | 0.00 | 35 | 1010.4 |
| 20260506004132 | 75 | 241 | 1.0 | 9.0 | 0.00 | 0.00 | 0.00 | 35 | 1010.3 |
| 20260506003622 | 75 | 259 | 2.0 | 9.0 | 0.00 | 0.00 | 0.00 | 34 | 1010.2 |
| 20260506003151 | 76 | 280 | 3.0 | 7.0 | 0.00 | 0.00 | 0.00 | 34 | 1010.3 |
| 20260506002618 | 76 | 298 | 1.0 | 4.0 | 0.00 | 0.00 | 0.00 | 34 | 1010.1 |
| 20260506002126 | 76 | 52 | 0.0 | 10.0 | 0.00 | 0.00 | 0.00 | 33 | 1010.2 |
| 20260506001616 | 77 | 261 | 3.0 | 11.0 | 0.00 | 0.00 | 0.00 | 32 | 1010.1 |
| 20260506001125 | 77 | 228 | 3.0 | 11.0 | 0.00 | 0.00 | 0.00 | 32 | 1009.9 |
| 20260506000614 | 77 | 135 | 2.0 | 13.0 | 0.00 | 0.00 | 0.00 | 32 | 1010.0 |
| 20260506000122 | 77 | 292 | 2.0 | 13.0 | 0.00 | 0.00 | 0.00 | 31 | 1010.0 |
| 20260505235650 | 78 | 356 | 3.0 | 12.0 | 0.00 | 0.00 | 0.00 | 30 | 1010.0 |
| 20260505235118 | 78 | 292 | 5.0 | 12.0 | 0.00 | 0.00 | 0.00 | 30 | 1010.1 |
| 20260505234626 | 78 | 278 | 3.0 | 15.0 | 0.00 | 0.00 | 0.00 | 29 | 1010.0 |
| 20260505234114 | 78 | 313 | 3.0 | 15.0 | 0.00 | 0.00 | 0.00 | 29 | 1009.9 |
| 20260505233623 | 78 | 209 | 4.0 | 12.0 | 0.00 | 0.00 | 0.00 | 29 | 1009.8 |
| 20260505233127 | 78 | 203 | 5.0 | 13.0 | 0.00 | 0.00 | 0.00 | 30 | 1009.9 |
| 20260505232617 | 78 | 224 | 3.0 | 8.0 | 0.00 | 0.00 | 0.00 | 30 | 1009.9 |
| 20260505232125 | 79 | 301 | 1.0 | 7.0 | 0.00 | 0.00 | 0.00 | 31 | 1009.9 |
| 20260505231614 | 79 | 191 | 2.0 | 11.0 | 0.00 | 0.00 | 0.00 | 29 | 1009.8 |
| 20260505231123 | 79 | 263 | 3.0 | 11.0 | 0.00 | 0.00 | 0.00 | 29 | 1009.8 |
| 20260505230631 | 79 | 222 | 1.0 | 12.0 | 0.00 | 0.00 | 0.00 | 30 | 1009.8 |
| 20260505230140 | 79 | 282 | 3.0 | 12.0 | 0.00 | 0.00 | 0.00 | 29 | 1009.8 |
| 20260505225628 | 79 | 268 | 2.0 | 16.0 | 0.00 | 0.00 | 0.00 | 30 | 1009.9 |
| 20260505225117 | 80 | 334 | 4.0 | 16.0 | 0.00 | 0.00 | 0.00 | 29 | 1009.8 |
| 20260505224627 | 80 | 261 | 2.0 | 11.0 | 0.00 | 0.00 | 0.00 | 29 | 1009.9 |
| 20260505224115 | 80 | 311 | 2.0 | 10.0 | 0.00 | 0.00 | 0.00 | 29 | 1009.9 |
| 20260505223625 | 80 | 57 | 3.0 | 13.0 | 0.00 | 0.00 | 0.00 | 29 | 1009.9 |
| 20260505223134 | 80 | 305 | 5.0 | 15.0 | 0.00 | 0.00 | 0.00 | 29 | 1009.9 |
| 20260505222623 | 81 | 299 | 6.0 | 16.0 | 0.00 | 0.00 | 0.00 | 28 | 1010.0 |
| 20260505222152 | 80 | 291 | 4.0 | 14.0 | 0.00 | 0.00 | 0.00 | 29 | 1010.1 |
| 20260505221619 | 80 | 263 | 5.0 | 14.0 | 0.00 | 0.00 | 0.00 | 28 | 1010.0 |
| 20260505221128 | 80 | 296 | 4.0 | 14.0 | 0.00 | 0.00 | 0.00 | 28 | 1009.9 |
| 20260505220618 | 80 | 206 | 9.0 | 17.0 | 0.00 | 0.00 | 0.00 | 28 | 1009.9 |
| 20260505220143 | 80 | 320 | 4.0 | 17.0 | 0.00 | 0.00 | 0.00 | 29 | 1009.9 |
| 20260505215631 | 81 | 179 | 5.0 | 15.0 | 0.00 | 0.00 | 0.00 | 29 | 1009.8 |
| 20260505215119 | 81 | 240 | 3.0 | 14.0 | 0.00 | 0.00 | 0.00 | 30 | 1009.9 |
| 20260505214629 | 81 | 300 | 6.0 | 14.0 | 0.00 | 0.00 | 0.00 | 29 | 1009.8 |
| 20260505214118 | 81 | 270 | 4.0 | 17.0 | 0.00 | 0.00 | 0.00 | 30 | 1009.9 |
| 20260505213627 | 81 | 144 | 6.0 | 17.0 | 0.00 | 0.00 | 0.00 | 29 | 1009.9 |
| 20260505213136 | 81 | 310 | 5.0 | 15.0 | 0.00 | 0.00 | 0.00 | 29 | 1009.9 |
| 20260505212623 | 82 | 228 | 4.0 | 17.0 | 0.00 | 0.00 | 0.00 | 29 | 1009.8 |
| 20260505212131 | 82 | 265 | 7.0 | 17.0 | 0.00 | 0.00 | 0.00 | 29 | 1009.7 |
| 20260505211620 | 82 | 309 | 5.0 | 15.0 | 0.00 | 0.00 | 0.00 | 30 | 1009.6 |
| 20260505211149 | 83 | 44 | 6.0 | 15.0 | 0.00 | 0.00 | 0.00 | 29 | 1009.6 |
| 20260505210638 | 83 | 306 | 3.0 | 14.0 | 0.00 | 0.00 | 0.00 | 30 | 1009.7 |
| 20260505210146 | 83 | 294 | 6.0 | 16.0 | 0.00 | 0.00 | 0.00 | 29 | 1009.7 |
| 20260505205648 | 83 | 257 | 4.0 | 16.0 | 0.00 | 0.00 | 0.00 | 30 | 1009.7 |
| 20260505205135 | 83 | 224 | 6.0 | 18.0 | 0.00 | 0.00 | 0.00 | 30 | 1009.6 |
| 20260505204623 | 83 | 245 | 8.0 | 18.0 | 0.00 | 0.00 | 0.00 | 30 | 1009.8 |
| 20260505204132 | 83 | 270 | 5.0 | 18.0 | 0.00 | 0.00 | 0.00 | 30 | 1009.6 |
| 20260505203620 | 83 | 241 | 7.0 | 17.0 | 0.00 | 0.00 | 0.00 | 31 | 1009.6 |
| 20260505203129 | 84 | 201 | 4.0 | 14.0 | 0.00 | 0.00 | 0.00 | 33 | 1009.7 |
| 20260505202616 | 83 | 249 | 6.0 | 14.0 | 0.00 | 0.00 | 0.00 | 30 | 1009.7 |
| 20260505202125 | 83 | 216 | 3.0 | 23.0 | 0.00 | 0.00 | 0.00 | 32 | 1009.6 |
| 20260505201615 | 83 | 151 | 5.0 | 23.0 | 0.00 | 0.00 | 0.00 | 32 | 1009.6 |
| 20260505201123 | 83 | 227 | 5.0 | 19.0 | 0.00 | 0.00 | 0.00 | 32 | 1009.7 |
| 20260505200632 | 83 | 224 | 4.0 | 23.0 | 0.00 | 0.00 | 0.00 | 31 | 1009.8 |
| 20260505200121 | 82 | 200 | 7.0 | 23.0 | 0.00 | 0.00 | 0.00 | 32 | 1009.8 |
| 20260505195630 | 82 | 247 | 8.0 | 18.0 | 0.00 | 0.00 | 0.00 | 32 | 1010.0 |
| 20260505195140 | 83 | 165 | 5.0 | 15.0 | 0.00 | 0.00 | 0.00 | 32 | 1009.9 |
| 20260505194647 | 83 | 232 | 4.0 | 18.0 | 0.00 | 0.00 | 0.00 | 32 | 1009.9 |
| 20260505194115 | 83 | 267 | 4.0 | 18.0 | 0.00 | 0.00 | 0.00 | 33 | 1009.9 |
| 20260505193620 | 83 | 338 | 5.0 | 19.0 | 0.00 | 0.00 | 0.00 | 32 | 1010.0 |
| 20260505193127 | 83 | 183 | 7.0 | 23.0 | 0.00 | 0.00 | 0.00 | 33 | 1010.1 |
| 20260505192617 | 83 | 20 | 5.0 | 24.0 | 0.00 | 0.00 | 0.00 | 30 | 1010.2 |
| 20260505192145 | 83 | 170 | 10.0 | 24.0 | 0.00 | 0.00 | 0.00 | 32 | 1010.2 |
| 20260505191633 | 83 | 216 | 8.0 | 23.0 | 0.00 | 0.00 | 0.00 | 33 | 1010.3 |
| 20260505191121 | 84 | 225 | 13.0 | 23.0 | 0.00 | 0.00 | 0.00 | 32 | 1010.2 |
| 20260505190631 | 84 | 126 | 5.0 | 19.0 | 0.00 | 0.00 | 0.00 | 33 | 1010.4 |
| 20260505190119 | 84 | 120 | 6.0 | 19.0 | 0.00 | 0.00 | 0.00 | 33 | 1010.3 |
| 20260505185627 | 84 | 233 | 4.0 | 11.0 | 0.00 | 0.00 | 0.00 | 34 | 1010.5 |
| 20260505185117 | 84 | 270 | 3.0 | 11.0 | 0.00 | 0.00 | 0.00 | 32 | 1010.6 |
| 20260505184625 | 84 | 334 | 4.0 | 20.0 | 0.00 | 0.00 | 0.00 | 33 | 1010.6 |
| 20260505184154 | 83 | 313 | 4.0 | 20.0 | 0.00 | 0.00 | 0.00 | 35 | 1010.5 |
| 20260505183621 | 83 | 224 | 8.0 | 17.0 | 0.00 | 0.00 | 0.00 | 36 | 1010.7 |
| 20260505183130 | 83 | 255 | 5.0 | 17.0 | 0.00 | 0.00 | 0.00 | 35 | 1010.7 |
| 20260505182639 | 83 | 249 | 4.0 | 17.0 | 0.00 | 0.00 | 0.00 | 36 | 1011.0 |
| 20260505182126 | 83 | 214 | 5.0 | 14.0 | 0.00 | 0.00 | 0.00 | 35 | 1011.0 |
| 20260505181616 | 83 | 57 | 5.0 | 14.0 | 0.00 | 0.00 | 0.00 | 35 | 1010.9 |
| 20260505181121 | 83 | 222 | 5.0 | 12.0 | 0.00 | 0.00 | 0.00 | 35 | 1011.1 |
| 20260505180630 | 83 | 181 | 4.0 | 13.0 | 0.00 | 0.00 | 0.00 | 36 | 1011.2 |
| 20260505180118 | 83 | 182 | 4.0 | 13.0 | 0.00 | 0.00 | 0.00 | 35 | 1011.1 |
| 20260505175627 | 83 | 220 | 4.0 | 14.0 | 0.00 | 0.00 | 0.00 | 36 | 1011.2 |
| 20260505175115 | 83 | 301 | 5.0 | 14.0 | 0.00 | 0.00 | 0.00 | 35 | 1011.2 |
| 20260505174623 | 83 | 305 | 5.0 | 14.0 | 0.00 | 0.00 | 0.00 | 35 | 1011.3 |